LUDI TANCE-4 01A

Last updated on Fri Nov 07 2025 00:02:52 GMT+0000 (Coordinated Universal Time)

1 57624U 23120A 25309.69510625 -.00000169 00000+0 00000+0 0 9990 2 57624 15.2621 199.5069 0005902 71.0991 114.4951 1.00267583 8303
UTC large
Height (km)
Speed (km/s)
/
Latitude / Longitude
Inclination (degrees)
Orbital Period (minutes)
Azimuth
Elevation
Range (km)
Doppler Factor

Next 0 passes for location: London (51.5072 / 0.1276)

Sorry there are no passes over London.